EW6135 Weather Reports


Display with metric or nautical units.
time (UTC)temp
F
wind
direction
speed
MPH
gust
MPH
rain 1hr
in
rain 24hr
in
rain mn
in
humidity
%
barometer
mb
20260502123542 57 52 0.0 5.0 0.01 0.08 0.07 98 1011.2
20260502123042 57 53 0.0 6.0 0.01 0.08 0.07 98 1011.2
20260502122541 57 347 2.0 6.0 0.01 0.08 0.07 98 1011.2
20260502122041 58 37 0.0 6.0 0.02 0.08 0.07 99 1011.2
20260502121548 58 32 1.0 7.0 0.02 0.08 0.07 99 1011.1
20260502121041 58 349 1.0 7.0 0.02 0.08 0.07 99 1011.1
20260502115643 57 10 0.0 2.0 0.02 0.08 0.07 99 1011.0
20260502115040 57 10 0.0 3.0 0.03 0.08 0.07 99 1010.9
20260502114542 57 319 0.0 3.0 0.02 0.07 0.06 99 1010.8
20260502114039 57 344 0.0 5.0 0.02 0.07 0.06 98 1010.7
20260502113539 57 315 0.0 5.0 0.02 0.07 0.06 98 1010.7
20260502113039 57 25 1.0 4.0 0.03 0.07 0.06 98 1010.6
20260502112540 57 49 1.0 7.0 0.03 0.07 0.06 98 1010.6
20260502112039 57 56 2.0 7.0 0.02 0.06 0.05 98 1010.6
20260502111539 57 311 1.0 7.0 0.03 0.06 0.05 98 1010.7
20260502111038 57 11 2.0 8.0 0.03 0.06 0.05 98 1010.7
20260502110038 57 328 0.0 7.0 0.03 0.06 0.05 98 1010.5
20260502105538 57 337 3.0 7.0 0.03 0.06 0.05 98 1010.4
20260502105037 57 39 2.0 7.0 0.02 0.05 0.04 98 1010.5
20260502104537 58 22 1.0 5.0 0.02 0.05 0.04 98 1010.6
20260502104037 58 30 1.0 4.0 0.02 0.05 0.04 98 1010.6
20260502103536 58 37 1.0 4.0 0.02 0.05 0.04 98 1010.6
20260502103041 58 11 0.0 3.0 0.01 0.04 0.03 98 1010.5
20260502102536 59 328 0.0 2.0 0.01 0.04 0.03 98 1010.5
20260502102037 59 335 0.0 4.0 0.01 0.04 0.03 98 1010.5
20260502101544 58 1 0.0 3.0 0.01 0.04 0.03 99 1010.3
20260502101038 58 44 0.0 1.0 0.00 0.03 0.02 98 1010.3
20260502091533 58 303 0.0 0.0 0.00 0.03 0.02 98 1010.0
20260502091033 57 303 0.0 0.0 0.01 0.03 0.02 98 1010.1
20260502071529 57 89 0.0 0.0 0.00 0.01 0.00 97 1010.5
20260502071029 57 89 0.0 0.0 0.00 0.01 0.00 97 1010.5
20260502070024 56 89 0.0 0.0 0.00 0.01 0.00 97 1010.5
20260502065524 56 89 0.0 0.0 0.00 0.01 0.00 97 1010.6
20260502065027 56 89 0.0 0.0 0.00 0.01 0.00 97 1010.6
20260502064523 56 89 0.0 0.0 0.00 0.01 0.00 97 1010.7
20260502064023 56 89 0.0 0.0 0.00 0.01 0.00 97 1010.7
20260502063522 56 89 0.0 0.0 0.00 0.01 0.00 97 1010.7
20260502063028 56 89 0.0 1.0 0.00 0.01 0.00 97 1010.7
20260502062521 56 89 0.0 1.0 0.00 0.01 0.00 97 1010.7
20260502062023 56 89 0.0 0.0 0.00 0.01 0.00 97 1010.7
20260502061519 56 89 0.0 0.0 0.00 0.01 0.00 97 1010.7
20260502061018 56 89 0.0 0.0 0.00 0.01 0.00 97 1010.7
20260502060017 55 89 0.0 0.0 0.00 0.01 0.00 97 1010.9
20260502055517 55 89 0.0 0.0 0.00 0.01 0.00 97 1011.1
20260502055019 55 89 0.0 0.0 0.00 0.01 0.00 97 1011.2
20260502054515 55 89 0.0 0.0 0.00 0.01 0.00 97 1011.3
20260502054015 55 89 0.0 0.0 0.00 0.01 0.00 97 1011.4
20260502053514 55 89 0.0 0.0 0.00 0.01 0.00 97 1011.4
20260502053013 55 89 0.0 0.0 0.00 0.01 0.00 96 1011.5
20260502052513 55 89 0.0 0.0 0.00 0.01 0.00 96 1011.6
20260502052012 55 89 0.0 0.0 0.00 0.01 0.00 96 1011.5
20260502051510 54 89 0.0 0.0 0.00 0.01 0.00 96 1011.6
20260502051010 54 89 0.0 0.0 0.00 0.01 0.00 96 1011.7
20260502050010 54 89 0.0 0.0 0.00 0.01 0.00 96 1011.7
20260502045510 54 89 0.0 0.0 0.00 0.01 0.00 96 1011.7
20260502045013 54 89 0.0 0.0 0.00 0.01 0.00 96 1011.8
20260502044508 54 89 0.0 0.0 0.00 0.01 0.00 96 1011.9
20260502044012 54 89 0.0 0.0 0.00 0.01 0.00 95 1011.8
20260502043507 54 89 0.0 0.0 0.00 0.01 0.00 95 1011.9
20260502043007 54 89 0.0 0.0 0.00 0.01 0.00 95 1012.0
20260502042506 54 89 0.0 0.0 0.00 0.01 0.00 95 1012.1
20260502042006 54 89 0.0 0.0 0.00 0.01 0.00 95 1012.1
20260502041505 54 89 0.0 0.0 0.00 0.01 0.00 95 1012.1
20260502041004 54 89 0.0 0.0 0.00 0.01 0.00 95 1012.1
20260502040003 54 89 0.0 0.0 0.00 0.01 0.01 95 1012.2
20260502035503 54 89 0.0 0.0 0.00 0.01 0.01 95 1012.3
20260502035003 54 89 0.0 0.0 0.00 0.01 0.01 95 1012.5
20260502034508 54 89 0.0 0.0 0.00 0.01 0.01 95 1012.4
20260502034003 54 89 0.0 0.0 0.00 0.01 0.01 95 1012.4
20260502033503 54 89 0.0 0.0 0.00 0.01 0.01 95 1012.5
20260502033003 54 89 0.0 1.0 0.00 0.01 0.01 95 1012.5
20260502032503 54 89 0.0 1.0 0.00 0.01 0.01 95 1012.5
20260502032003 53 89 0.0 0.0 0.00 0.01 0.01 95 1012.5
20260502031502 53 89 0.0 0.0 0.00 0.01 0.01 95 1012.6
20260502031003 53 89 0.0 0.0 0.00 0.01 0.01 94 1012.7
20260502030003 53 89 0.0 0.0 0.00 0.01 0.01 94 1012.8
20260502025503 53 89 0.0 0.0 0.00 0.01 0.01 94 1012.9
20260502025003 53 89 0.0 0.0 0.00 0.01 0.01 93 1012.9
20260502024503 53 89 0.0 0.0 0.00 0.01 0.01 93 1012.8
20260502024003 53 89 0.0 0.0 0.00 0.01 0.01 93 1012.7
20260502023503 53 89 0.0 0.0 0.00 0.01 0.01 92 1012.7
20260502023003 54 89 0.0 0.0 0.00 0.01 0.01 92 1012.7
20260502022506 54 89 0.0 0.0 0.00 0.01 0.01 92 1012.8
20260502022001 54 89 0.0 0.0 0.00 0.01 0.01 92 1012.8
20260502021502 54 89 0.0 0.0 0.00 0.01 0.01 92 1012.8
20260502021002 54 89 0.0 0.0 0.00 0.01 0.01 91 1012.8
20260502020003 54 89 0.0 1.0 0.00 0.01 0.01 91 1012.9
20260502015502 54 89 0.0 1.0 0.00 0.01 0.01 91 1013.0
20260502015004 55 89 0.0 1.0 0.00 0.01 0.01 90 1012.9
20260502014503 55 89 0.0 0.0 0.00 0.01 0.01 89 1012.7
20260502014001 55 89 0.0 0.0 0.00 0.01 0.01 88 1012.7
20260502013501 55 89 0.0 0.0 0.00 0.01 0.01 88 1012.9
20260502013002 56 89 0.0 0.0 0.00 0.01 0.01 88 1013.1
20260502012502 56 89 0.0 0.0 0.00 0.01 0.01 87 1013.2
20260502012002 56 89 0.0 1.0 0.00 0.01 0.01 86 1013.1
20260502011502 56 89 0.0 1.0 0.00 0.01 0.01 85 1013.0
20260502011002 56 89 0.0 2.0 0.00 0.01 0.01 85 1012.7
20260502010105 56 89 0.0 3.0 0.00 0.01 0.01 85 1012.6
20260502005600 56 89 0.0 3.0 0.00 0.01 0.01 85 1012.6
20260502005100 56 95 0.0 2.0 0.00 0.01 0.01 86 1012.5
20260502004604 56 95 0.0 2.0 0.00 0.01 0.01 86 1012.4
20260502004059 56 116 0.0 1.0 0.00 0.01 0.01 86 1012.4
20260502003601 56 121 0.0 1.0 0.00 0.01 0.01 86 1012.5
20260502003100 56 79 0.0 1.0 0.00 0.01 0.01 85 1012.5
20260502002600 56 50 0.0 1.0 0.00 0.01 0.01 85 1012.6
20260502002100 56 50 0.0 3.0 0.00 0.01 0.01 84 1012.7
20260502001604 57 50 0.0 3.0 0.00 0.01 0.01 84 1012.6
20260502001100 57 98 0.0 2.0 0.00 0.01 0.01 84 1012.6
20260502000701 57 122 0.0 3.0 0.00 0.01 0.01 84 1012.6
20260502000001 57 56 0.0 1.0 0.00 0.01 0.01 84 1012.5
20260501235502 57 56 0.0 1.0 0.00 0.01 0.01 83 1012.6
20260501235001 57 56 0.0 1.0 0.00 0.01 0.01 82 1012.8
20260501234501 58 56 0.0 3.0 0.00 0.01 0.01 81 1012.9
20260501234101 58 56 1.0 3.0 0.00 0.01 0.01 80 1013.0
20260501233601 58 100 0.0 3.0 0.00 0.01 0.01 80 1012.9
20260501233110 58 82 0.0 2.0 0.00 0.01 0.01 80 1012.9
20260501233002 58 46 1.0 2.0 0.00 0.01 0.01 80 1013.0
20260501232600 58 55 0.0 3.0 0.00 0.01 0.01 80 1013.0
20260501232100 59 55 1.0 3.0 0.00 0.01 0.01 79 1013.0
20260501231629 59 49 0.0 3.0 0.00 0.01 0.01 79 1013.0
20260501231059 59 49 0.0 3.0 0.00 0.01 0.01 79 1013.0
20260501230700 59 28 0.0 3.0 0.00 0.01 0.01 78 1013.0
20260501230055 59 23 1.0 3.0 0.00 0.01 0.01 78 1013.1
20260501225555 60 88 0.0 3.0 0.00 0.01 0.01 78 1013.2
20260501225055 60 91 0.0 5.0 0.00 0.01 0.01 76 1013.1
20260501224554 60 62 1.0 5.0 0.00 0.01 0.01 74 1013.1
20260501224058 60 103 0.0 3.0 0.00 0.01 0.01 75 1013.1
20260501223558 61 85 0.0 5.0 0.00 0.01 0.01 76 1013.1
20260501223114 60 113 2.0 5.0 0.00 0.01 0.01 75 1013.1
20260501222554 60 82 2.0 5.0 0.00 0.01 0.01 75 1013.1
20260501222054 60 58 1.0 5.0 0.00 0.01 0.01 75 1013.0
20260501221553 60 152 1.0 4.0 0.00 0.01 0.01 74 1013.1
20260501221053 60 55 2.0 4.0 0.00 0.01 0.01 74 1013.3
20260501220553 60 91 0.0 4.0 0.00 0.01 0.01 73 1013.3
20260501220053 60 53 1.0 7.0 0.00 0.01 0.01 72 1013.5
20260501215553 60 65 1.0 7.0 0.00 0.01 0.01 72 1013.5
20260501215056 60 52 3.0 7.0 0.00 0.01 0.01 71 1013.6
20260501214555 60 94 1.0 5.0 0.00 0.01 0.01 72 1013.5
20260501214052 60 52 1.0 6.0 0.00 0.01 0.01 72 1013.6
20260501213651 61 51 2.0 6.0 0.00 0.01 0.01 71 1013.5
20260501213055 61 52 1.0 4.0 0.00 0.01 0.01 71 1013.5
20260501212551 61 97 1.0 7.0 0.00 0.01 0.01 72 1013.5
20260501212053 60 39 3.0 8.0 0.00 0.01 0.01 73 1013.5
20260501211553 61 56 3.0 7.0 0.00 0.01 0.01 72 1013.5
20260501211052 60 88 2.0 7.0 0.00 0.01 0.01 74 1013.5
20260501210551 60 41 3.0 7.0 0.00 0.01 0.01 73 1013.4
20260501210051 60 34 2.0 5.0 0.00 0.01 0.01 73 1013.6
20260501205551 60 41 2.0 7.0 0.00 0.01 0.01 73 1013.5
20260501205051 60 70 3.0 7.0 0.00 0.01 0.01 71 1013.6
20260501204612 60 61 2.0 7.0 0.00 0.01 0.01 71 1013.6
20260501204051 60 58 2.0 8.0 0.00 0.01 0.01 71 1013.5
20260501203651 61 36 3.0 8.0 0.00 0.01 0.01 69 1013.5
20260501203050 61 15 3.0 8.0 0.00 0.01 0.01 68 1013.6
20260501202550 61 49 2.0 8.0 0.00 0.01 0.01 68 1013.6
20260501202050 61 58 4.0 8.0 0.00 0.01 0.01 67 1013.6
20260501201552 61 51 0.0 9.0 0.00 0.01 0.01 68 1013.6
20260501201049 61 357 2.0 9.0 0.00 0.01 0.01 66 1013.5
20260501200549 61 79 2.0 6.0 0.00 0.01 0.01 67 1013.4
20260501200049 61 63 1.0 7.0 0.00 0.01 0.01 67 1013.4
20260501195553 61 83 3.0 8.0 0.00 0.01 0.01 66 1013.5
20260501195052 62 41 4.0 8.0 0.00 0.01 0.01 65 1013.7
20260501194549 62 64 2.0 9.0 0.00 0.01 0.01 66 1013.7
20260501194049 62 44 3.0 9.0 0.00 0.01 0.01 65 1013.7
20260501193648 63 55 3.0 7.0 0.00 0.01 0.01 63 1013.8
20260501193050 63 53 2.0 7.0 0.00 0.01 0.01 63 1013.9
20260501192553 63 70 1.0 7.0 0.00 0.01 0.01 62 1014.0
20260501192049 63 49 2.0 8.0 0.00 0.01 0.01 62 1014.0
20260501191556 63 68 2.0 9.0 0.00 0.01 0.01 63 1014.0
20260501191051 64 65 3.0 9.0 0.00 0.01 0.01 61 1014.1
20260501190548 63 89 2.0 9.0 0.00 0.01 0.01 61 1014.3
20260501190049 63 61 3.0 9.0 0.00 0.01 0.01 61 1014.3
20260501185548 63 40 2.0 9.0 0.00 0.01 0.01 61 1014.1
20260501185049 63 122 3.0 9.0 0.00 0.01 0.01 61 1014.3
20260501184549 63 25 4.0 9.0 0.00 0.01 0.01 59 1014.4
20260501184048 64 65 2.0 9.0 0.00 0.01 0.01 61 1014.6
20260501183648 63 38 4.0 11.0 0.00 0.01 0.01 63 1014.6
20260501183050 63 80 3.0 11.0 0.00 0.01 0.01 62 1014.6
20260501182547 63 17 5.0 8.0 0.00 0.01 0.01 62 1014.6
20260501182047 63 46 3.0 8.0 0.00 0.01 0.01 59 1014.7
20260501181547 63 59 3.0 8.0 0.00 0.01 0.01 60 1014.7
20260501181046 63 75 3.0 9.0 0.00 0.01 0.01 58 1014.9
20260501180546 63 340 3.0 9.0 0.00 0.01 0.01 61 1014.7
20260501180057 63 39 2.0 9.0 0.00 0.01 0.01 63 1014.6
20260501175548 63 50 3.0 8.0 0.00 0.02 0.01 61 1014.8
20260501175045 63 98 3.0 12.0 0.00 0.02 0.01 61 1014.9
20260501174601 63 49 5.0 14.0 0.00 0.02 0.01 60 1014.8
20260501174043 63 119 2.0 14.0 0.00 0.02 0.01 64 1014.8
20260501173644 63 44 2.0 9.0 0.00 0.02 0.01 65 1014.7
20260501173044 63 95 2.0 9.0 0.00 0.02 0.01 64 1014.7
20260501172542 63 43 3.0 10.0 0.00 0.02 0.01 65 1014.7
20260501172042 62 102 4.0 11.0 0.00 0.02 0.01 64 1014.7
20260501171542 62 123 3.0 11.0 0.00 0.02 0.01 65 1014.7
20260501171041 62 115 1.0 11.0 0.00 0.02 0.01 64 1014.8
20260501170541 62 50 4.0 11.0 0.00 0.02 0.01 65 1014.8
20260501170048 61 88 3.0 9.0 0.00 0.02 0.01 67 1015.0
20260501165540 61 347 2.0 12.0 0.00 0.11 0.01 66 1015.0
20260501165041 62 117 5.0 12.0 0.00 0.11 0.01 64 1015.0
20260501164542 62 48 3.0 8.0 0.00 0.11 0.01 65 1015.2
20260501164039 62 72 3.0 8.0 0.00 0.11 0.01 63 1015.3
20260501163639 62 55 3.0 9.0 0.00 0.11 0.01 66 1015.8
20260501163042 62 78 2.0 9.0 0.00 0.11 0.01 66 1015.8
20260501162539 62 96 3.0 9.0 0.00 0.11 0.01 68 1015.8
20260501162042 62 72 4.0 10.0 0.00 0.11 0.01 67 1015.7
20260501161539 61 39 5.0 14.0 0.00 0.11 0.01 64 1015.7
20260501161038 61 63 4.0 13.0 0.00 0.11 0.01 65 1015.7
20260501160538 62 360 5.0 8.0 0.00 0.11 0.01 66 1015.7
20260501160047 62 1 2.0 9.0 0.00 0.11 0.01 68 1015.7
20260501155538 62 60 4.0 9.0 0.00 0.12 0.01 67 1015.7
20260501155038 62 33 3.0 10.0 0.00 0.12 0.01 66 1015.6
20260501154539 62 49 4.0 11.0 0.00 0.12 0.01 67 1015.6
20260501154040 62 68 5.0 13.0 0.00 0.12 0.01 66 1015.7
20260501153636 62 55 5.0 10.0 0.00 0.12 0.01 65 1015.6
20260501153036 62 39 3.0 10.0 0.00 0.12 0.01 69 1015.6
20260501152537 62 62 4.0 10.0 0.00 0.12 0.01 66 1015.5
20260501152035 62 45 3.0 13.0 0.00 0.12 0.01 69 1015.7
20260501151534 61 64 3.0 13.0 0.00 0.12 0.01 68 1015.5
20260501151034 61 61 5.0 12.0 0.00 0.12 0.01 68 1015.4
20260501150534 61 63 4.0 14.0 0.00 0.12 0.01 67 1015.3
20260501150036 61 66 6.0 14.0 0.00 0.12 0.01 67 1015.4
20260501145532 61 74 3.0 6.0 0.00 0.12 0.01 69 1015.3
20260501145031 61 118 2.0 6.0 0.00 0.12 0.01 70 1015.3
20260501144537 60 101 2.0 13.0 0.00 0.12 0.01 70 1015.2
20260501144030 60 37 2.0 11.0 0.00 0.12 0.01 70 1015.2
20260501143631 60 86 4.0 13.0 0.00 0.12 0.01 68 1015.3
20260501143031 60 72 5.0 13.0 0.00 0.12 0.01 70 1015.3
20260501142531 60 34 3.0 11.0 0.00 0.12 0.01 72 1015.2